Flag for Vietnam Weather past 2 weeks in Ho Chi Minh, Vietnam

Now
77 °F

Broken clouds.


Feels Like: 78 °F
Forecast: 76 / 88 °F
Wind: 2 mph from North

Location: Ho Chi Minh

Current Time: Aug 31, 2014 at 7:21:19 AM

Latest Report: Aug 31, 2014 at 7:00 AM


Visibility: 4 mi

Pressure: 29.77 "Hg

Humidity: 89%

Dew point: 73 °F

Location of Ho Chi MinhLocation

Historic Weather in Ho Chi Minh — Graph

°F

Ho Chi Minh temperature yesterday

Maximum temperature yesterday: 88 °F (at 2:00 PM)
Minimum temperature yesterday: 75 °F (at 1:30 AM)
Average temperature yesterday: 81 °F

Past Weeks' High & Low Weather Summary

 TemperatureHumidityPressure
High97 °F (Aug 21, 2:30 PM)100% (Aug 19, 4:00 PM)29.89 "Hg (Aug 19, 4:00 PM)
Low75 °F (Aug 17, 3:30 AM)44% (Aug 21, 1:30 PM)29.65 "Hg (Aug 25, 2:00 PM)
Average82 °F79%29.79 "Hg
* Reported Aug 16 6:00 AM — Aug 31 6:00 AM, Ho Chi Minh, Weather by CustomWeather, © 2014

Note: Actual official high and low records may vary slightly from our data, if they occured in-between our weather recording intervals... More about our weather records

Advertising

Ho Chi Minh weather history for previous 24 hours

 ConditionsComfort  
Time TempWeatherWind HumidityBarometerVisibility
6:00 AM
Aug 31
75 °FBroken clouds.1 mph94%29.77 "Hg4 mi
5:30 AM75 °FPartly cloudy.1 mph94%29.77 "Hg5 mi
5:00 AM75 °FPartly cloudy.2 mph94%29.77 "Hg5 mi
4:30 AM75 °FPartly cloudy.1 mph94%29.74 "Hg5 mi
4:00 AM75 °FPartly cloudy.1 mph94%29.77 "Hg5 mi
3:30 AM75 °FPartly cloudy.No wind94%29.74 "Hg5 mi
3:00 AM75 °FPartly cloudy.5 mph94%29.74 "Hg5 mi
2:30 AM75 °FPartly cloudy.5 mph94%29.74 "Hg5 mi
1:30 AM75 °FPartly cloudy.3 mph94%29.74 "Hg5 mi
1:00 AM75 °FPartly cloudy.2 mph94%29.74 "Hg5 mi
12:30 AM75 °FPartly cloudy.2 mph94%29.77 "Hg5 mi
12:00 AM75 °FLight rain. Partly cloudy.5 mph94%29.77 "Hg5 mi
11:30 PM
Aug 30
75 °FLight rain. Partly cloudy.1 mph94%29.80 "Hg5 mi
11:00 PM75 °FLight rain. Mostly cloudy.2 mph94%29.80 "Hg4 mi
10:30 PM75 °FRain showers. Partly cloudy.12 mph89%29.83 "Hg2 mi
10:00 PM75 °FRain showers. Partly cloudy.16 mph94%29.83 "Hg1 mi
9:30 PM79 °FSprinkles. Partly cloudy.15 mph84%29.83 "Hg4 mi
9:00 PM82 °FPartly cloudy.6 mph74%29.80 "HgN/A
8:30 PM82 °FPartly cloudy.5 mph74%29.77 "HgN/A
8:00 PM82 °FPassing clouds.7 mph74%29.77 "HgN/A
7:30 PM82 °FPassing clouds.7 mph74%29.77 "HgN/A
7:00 PM82 °FPassing clouds.7 mph74%29.74 "HgN/A
6:30 PM84 °FPassing clouds.6 mph70%29.74 "HgN/A
6:00 PM84 °FPartly sunny.6 mph70%29.71 "HgN/A
5:30 PM86 °FPartly sunny.7 mph66%29.71 "HgN/A
5:00 PM86 °FPartly sunny.6 mph62%29.71 "HgN/A
4:30 PM86 °FPartly sunny.8 mph66%29.71 "HgN/A
4:00 PM88 °FPartly sunny.7 mph62%29.71 "HgN/A
3:30 PM88 °FPartly sunny.8 mph62%29.71 "HgN/A
3:00 PM88 °FScattered clouds.7 mph62%29.71 "HgN/A
2:30 PM88 °FScattered clouds.8 mph62%29.71 "HgN/A
2:00 PM88 °FBroken clouds.9 mph62%29.74 "HgN/A
1:30 PM86 °FBroken clouds.8 mph66%29.74 "HgN/A
1:00 PM84 °FBroken clouds.7 mph74%29.77 "HgN/A
12:30 PM82 °FScattered clouds.10 mph79%29.80 "Hg5 mi
12:00 PM82 °FSprinkles. Partly sunny.10 mph79%29.80 "Hg5 mi
11:30 AM86 °FScattered clouds.10 mph66%29.80 "HgN/A
11:00 AM86 °FScattered clouds.9 mph66%29.83 "Hg6 mi
10:30 AM84 °FBroken clouds.9 mph70%29.83 "Hg6 mi
10:00 AM82 °FScattered clouds.10 mph79%29.83 "HgN/A
9:30 AM84 °FScattered clouds.9 mph74%29.83 "HgN/A
9:00 AM82 °FScattered clouds.8 mph74%29.83 "HgN/A
8:30 AM82 °FPartly sunny.5 mph74%29.83 "HgN/A
8:00 AM79 °FPartly sunny.2 mph84%29.83 "HgN/A
7:30 AM79 °FPartly sunny.3 mph89%29.83 "Hg4 mi
7:00 AM77 °FPartly sunny.5 mph89%29.83 "Hg4 mi
Weather by CustomWeather, © 2014

See weather overviewHow to use our weather pages